Location: Unspecified
(34.4950°S, 58.5160°W)
Time: 16:26:06
(UTC+00:00)

DELTA 2 R/B (1) - Visible Passes

Search period start: 14 March 2026 00:00
Search period end: 24 March 2026 00:00
Orbit: 787 x 799 km, 39.6° (Epoch: 14 March)

Date Brightness Start Highest point End Pass type
(mag) Time Alt. Az. Time Alt. Az. Time Alt. Az.
14 Mar 6.1 08:40:00 10° NNE 08:42:22 13° NE 08:44:43 10° ENE visible
15 Mar 6.1 08:09:00 10° NNE 08:10:28 11° NE 08:11:57 10° ENE visible
16 Mar 4.5 09:18:53 10° NW 09:24:07 44° NNE 09:29:25 10° ESE visible
17 Mar 4.6 08:47:18 11° NW 08:52:12 40° NNE 08:57:24 10° E visible
18 Mar 4.7 08:17:26 22° NNW 08:20:17 36° NE 08:25:21 10° E visible
19 Mar 4.7 07:47:30 31° NNE 07:48:22 33° NE 07:53:18 10° E visible
19 Mar 3.6 09:28:53 10° WNW 09:34:27 81° SSW 09:40:05 10° ESE visible
20 Mar 5.1 07:17:29 28° NE 07:17:29 28° NE 07:21:14 10° E visible
20 Mar 3.6 08:58:12 18° WNW 09:02:29 86° SSW 09:08:07 10° ESE visible
21 Mar 5.9 06:47:25 17° E 06:47:25 17° E 06:49:09 10° E visible
21 Mar 3.5 08:28:08 36° WNW 08:30:31 88° NNE 08:36:09 10° ESE visible
22 Mar 3.4 07:58:00 72° NW 07:58:34 83° NNE 08:04:10 10° ESE visible
23 Mar 4.1 07:27:50 54° E 07:27:50 54° E 07:32:11 10° ESE visible
23 Mar 4.0 09:08:33 14° W 09:13:11 54° S 09:18:40 10° ESE visible
